Location: Chenereilles
(45.4866°N, 4.0790°E)
Time: 23:31:37
(UTC+00:00)

USA 116 - Pass Details

Date: 12 November 2019
Orbit: 405 x 834 km, 97.9° (Epoch: 18 November)

Event Time Altitude Azimuth Distance (km) Brightness Sun altitude
Exits shadow 17:56:23 14° 24° (NNE) 1,757 6.0 -17.5°
Maximum altitude 18:00:06 57° 101° (ESE) 799 4.1 -18.1°
Drops below altitude 10° 18:04:54 10° 180° (S) 2,223 6.9 -19.0°
Sets 18:07:20 0° 184° (S) 3,191 7.7 -19.4°
